When you browse on this site, cookies collect data to enhance your experience and personalize the content and advertising you see.
Visit our Privacy Policy to learn more. By continuing to use the site, you agree to this use of cookies and data.

Hourly Weather Puerto Parra

Today, 4 July, Saturday

Time Temperature Precipitation Wind Pressure Humidity
00:00 +26°C° 3.8 mm 1 mps 750 mmHg 96%
01:00 +25°C° 0 mm 1 mps 750 mmHg 98%
02:00 +25°C° 1.1 mm 1 mps 750 mmHg 98%
03:00 +25°C° 1.1 mm 1 mps 750 mmHg 98%
04:00 +23°C° 1.1 mm 0 mps 750 mmHg 99%
05:00 +23°C° 0.4 mm 0 mps 750 mmHg 98%
06:00 +23°C° 0.4 mm 0 mps 750 mmHg 98%
07:00 +23°C° 0.4 mm 0 mps 751 mmHg 98%
08:00 +25°C° 0.3 mm 0 mps 751 mmHg 92%
09:00 +26°C° 0.3 mm 0 mps 751 mmHg 86%
10:00 +27°C° 0.3 mm 0 mps 751 mmHg 80%
11:00 +29°C° 0 mm 0 mps 750 mmHg 72%
12:00 +31°C° 0 mm 0 mps 750 mmHg 64%
13:00 +33°C° 0 mm 0 mps 749 mmHg 55%
14:00 +32°C° 0 mm 0 mps 748 mmHg 56%
15:00 +32°C° 0 mm 0 mps 748 mmHg 56%
16:00 +32°C° 0 mm 0 mps 747 mmHg 56%
17:00 +30°C° 0.2 mm 0 mps 748 mmHg 64%
18:00 +28°C° 0.2 mm 0 mps 748 mmHg 71%
19:00 +27°C° 0.2 mm 0 mps 749 mmHg 79%
20:00 +26°C° 0.3 mm 0 mps 749 mmHg 84%
21:00 +25°C° 0.3 mm 0 mps 750 mmHg 89%
22:00 +24°C° 0.3 mm 0 mps 751 mmHg 94%
23:00 +24°C° 0.9 mm 0 mps 751 mmHg 95%

Tomorrow, 5 July, Sunday

Time Temperature Precipitation Wind Pressure Humidity
00:00 +23°C° 0.9 mm 0 mps 751 mmHg 96%
01:00 +23°C° 0.9 mm 0 mps 751 mmHg 98%
02:00 +23°C° 0.7 mm 0 mps 750 mmHg 98%
03:00 +23°C° 0.7 mm 0 mps 750 mmHg 98%
04:00 +22°C° 0.7 mm 0 mps 750 mmHg 98%
05:00 +22°C° 0.7 mm 0 mps 750 mmHg 98%
06:00 +23°C° 0.7 mm 0 mps 751 mmHg 98%
07:00 +23°C° 0.7 mm 0 mps 751 mmHg 98%
08:00 +25°C° 0 mm 0 mps 751 mmHg 88%
09:00 +27°C° 0 mm 0 mps 751 mmHg 79%
10:00 +29°C° 0 mm 0 mps 751 mmHg 69%
11:00 +30°C° 0 mm 0 mps 750 mmHg 64%
12:00 +34°C° 0 mm 1 mps 749 mmHg 59%
13:00 +35°C° 0 mm 1 mps 749 mmHg 54%
14:00 +34°C° 0.1 mm 1 mps 748 mmHg 57%
15:00 +34°C° 0.1 mm 1 mps 748 mmHg 60%
16:00 +33°C° 0.1 mm 1 mps 747 mmHg 62%
17:00 +31°C° 0.6 mm 1 mps 748 mmHg 73%
18:00 +29°C° 0.6 mm 1 mps 749 mmHg 84%
19:00 +27°C° 0.6 mm 1 mps 749 mmHg 95%
20:00 +24°C° 2.1 mm 0 mps 750 mmHg 96%
21:00 +24°C° 2.1 mm 0 mps 751 mmHg 97%
22:00 +23°C° 2.1 mm 0 mps 751 mmHg 98%
23:00 +23°C° 2.2 mm 0 mps 751 mmHg 98%

Day after tomorrow, 6 July, Monday

Time Temperature Precipitation Wind Pressure Humidity
00:00 +23°C° 2.2 mm 0 mps 751 mmHg 98%
01:00 +23°C° 2.2 mm 0 mps 751 mmHg 99%
02:00 +23°C° 1.3 mm 0 mps 751 mmHg 99%
03:00 +22°C° 1.3 mm 0 mps 750 mmHg 99%
04:00 +22°C° 1.3 mm 0 mps 750 mmHg 99%
05:00 +23°C° 0.9 mm 0 mps 751 mmHg 99%
06:00 +23°C° 0.9 mm 0 mps 751 mmHg 98%
07:00 +23°C° 0.9 mm 0 mps 751 mmHg 98%
08:00 +24°C° 0.8 mm 0 mps 751 mmHg 95%
09:00 +25°C° 0.8 mm 0 mps 752 mmHg 92%
10:00 +27°C° 0.8 mm 0 mps 752 mmHg 88%
11:00 +28°C° 1.8 mm 1 mps 751 mmHg 91%
12:00 +28°C° 1.8 mm 1 mps 751 mmHg 93%
13:00 +28°C° 1.8 mm 1 mps 750 mmHg 95%
14:00 +28°C° 0.8 mm 1 mps 750 mmHg 93%
15:00 +28°C° 0.8 mm 1 mps 749 mmHg 92%
16:00 +28°C° 0.8 mm 1 mps 749 mmHg 90%
17:00 +27°C° 0.5 mm 1 mps 750 mmHg 92%
18:00 +26°C° 0.5 mm 1 mps 750 mmHg 95%
19:00 +25°C° 0.5 mm 1 mps 751 mmHg 97%
20:00 +25°C° 0 mm 1 mps 751 mmHg 97%
21:00 +25°C° 0 mm 1 mps 752 mmHg 98%
22:00 +22°C° 0 mm 0 mps 752 mmHg 98%
23:00 +22°C° 0 mm 0 mps 752 mmHg 98%

7 July, Tuesday

Time Temperature Precipitation Wind Pressure Humidity
00:00 +22°C° 0 mm 0 mps 752 mmHg 98%
01:00 +22°C° 0 mm 0 mps 751 mmHg 98%
02:00 +22°C° 0.1 mm 0 mps 751 mmHg 98%
03:00 +22°C° 0.1 mm 0 mps 751 mmHg 98%
04:00 +22°C° 0.1 mm 0 mps 751 mmHg 99%
05:00 +22°C° 0 mm 0 mps 751 mmHg 98%
06:00 +22°C° 0 mm 0 mps 751 mmHg 98%
07:00 +22°C° 0 mm 0 mps 752 mmHg 98%
08:00 +25°C° 0 mm 0 mps 752 mmHg 86%
09:00 +27°C° 0 mm 0 mps 752 mmHg 75%
10:00 +31°C° 0 mm 1 mps 751 mmHg 64%
11:00 +31°C° 0.1 mm 0 mps 751 mmHg 58%
12:00 +32°C° 0.1 mm 0 mps 750 mmHg 53%
13:00 +34°C° 0.1 mm 0 mps 750 mmHg 48%
14:00 +35°C° 0.1 mm 1 mps 749 mmHg 52%
15:00 +34°C° 0.1 mm 1 mps 749 mmHg 56%
16:00 +33°C° 0.1 mm 1 mps 749 mmHg 59%
17:00 +31°C° 0.3 mm 1 mps 749 mmHg 69%
18:00 +29°C° 0.3 mm 1 mps 750 mmHg 78%
19:00 +27°C° 0.3 mm 1 mps 750 mmHg 87%
20:00 +26°C° 0.3 mm 1 mps 751 mmHg 90%
21:00 +25°C° 0.3 mm 1 mps 751 mmHg 93%
22:00 +25°C° 0.3 mm 1 mps 752 mmHg 96%
23:00 +22°C° 0 mm 0 mps 752 mmHg 96%

8 July, Wednesday

Time Temperature Precipitation Wind Pressure Humidity
00:00 +22°C° 0 mm 0 mps 751 mmHg 96%
01:00 +22°C° 0 mm 0 mps 751 mmHg 97%
02:00 +22°C° 0 mm 0 mps 751 mmHg 97%
03:00 +22°C° 0 mm 0 mps 750 mmHg 97%
04:00 +22°C° 0 mm 0 mps 750 mmHg 97%
05:00 +22°C° 0 mm 0 mps 751 mmHg 96%
06:00 +22°C° 0 mm 0 mps 751 mmHg 96%
07:00 +22°C° 0 mm 0 mps 751 mmHg 95%
08:00 +25°C° 0 mm 0 mps 751 mmHg 85%
09:00 +27°C° 0 mm 0 mps 751 mmHg 74%
10:00 +30°C° 0 mm 0 mps 751 mmHg 64%
11:00 +31°C° 0 mm 0 mps 750 mmHg 58%
12:00 +33°C° 0 mm 0 mps 749 mmHg 53%
13:00 +34°C° 0 mm 0 mps 748 mmHg 47%
14:00 +34°C° 0 mm 0 mps 748 mmHg 48%
15:00 +33°C° 0 mm 0 mps 747 mmHg 48%
16:00 +35°C° 0 mm 1 mps 747 mmHg 49%
17:00 +33°C° 0 mm 1 mps 748 mmHg 58%
18:00 +29°C° 0 mm 0 mps 748 mmHg 66%
19:00 +27°C° 0 mm 0 mps 749 mmHg 75%
20:00 +26°C° 1.6 mm 0 mps 749 mmHg 82%
21:00 +27°C° 1.6 mm 1 mps 750 mmHg 89%
22:00 +26°C° 1.6 mm 1 mps 751 mmHg 96%
23:00 +23°C° 1.6 mm 0 mps 751 mmHg 97%

9 July, Thursday

Time Temperature Precipitation Wind Pressure Humidity
00:00 +23°C° 1.6 mm 0 mps 751 mmHg 98%
01:00 +23°C° 1.6 mm 0 mps 750 mmHg 99%
02:00 +23°C° 0.2 mm 0 mps 750 mmHg 99%
03:00 +23°C° 0.2 mm 0 mps 750 mmHg 99%
04:00 +23°C° 0.2 mm 0 mps 750 mmHg 98%
05:00 +23°C° 0.1 mm 0 mps 751 mmHg 98%
06:00 +23°C° 0.1 mm 0 mps 751 mmHg 97%
07:00 +23°C° 0.1 mm 0 mps 751 mmHg 97%
08:00 +25°C° 0 mm 0 mps 751 mmHg 86%
09:00 +27°C° 0 mm 0 mps 751 mmHg 74%
10:00 +32°C° 0 mm 1 mps 751 mmHg 63%
11:00 +31°C° 0 mm 0 mps 750 mmHg 58%
12:00 +33°C° 0 mm 0 mps 749 mmHg 52%
13:00 +34°C° 0 mm 0 mps 748 mmHg 47%
14:00 +34°C° 0 mm 0 mps 748 mmHg 47%
15:00 +33°C° 0 mm 0 mps 747 mmHg 48%
16:00 +35°C° 0 mm 1 mps 747 mmHg 48%
17:00 +31°C° 0 mm 0 mps 747 mmHg 57%
18:00 +29°C° 0 mm 0 mps 748 mmHg 66%
19:00 +27°C° 0 mm 0 mps 749 mmHg 75%
20:00 +26°C° 0.3 mm 0 mps 749 mmHg 79%
21:00 +25°C° 0.3 mm 0 mps 750 mmHg 83%
22:00 +24°C° 0.3 mm 0 mps 751 mmHg 87%
23:00 +24°C° 1.1 mm 0 mps 751 mmHg 90%
Show more